Location: Lichtensteig
(47.3376°N, 9.0841°E)
Time: 08:35:28
(UTC+00:00)

Resurs 1-3 - Pass Details

Date: 03 March 2021
Orbit: 629 x 633 km, 97.9° (Epoch: 13 April)

Event Time Altitude Azimuth Distance (km) Brightness Sun altitude
Exits shadow 19:38:48 75° 335° (NNW) 661 3.6 -25.4°
Drops below altitude 10° 19:42:52 10° 346° (NNW) 2,027 6.6 -26.0°
Sets 19:45:05 0° 347° (NNW) 2,940 7.5 -26.4°
